Location: Roanoke
(37.2710°N, 79.9420°W)
Time: 06:46:00
(UTC-05:00)

S-56A Canister/Altair - Pass Details

Date: 27 November 2019
Orbit: 633 x 2499 km, 38.9° (Epoch: 11 December)

Event Time Altitude Azimuth Distance (km) Brightness Sun altitude
Rises 13:46:12 0° 231° (SW) 6,167 13.1 27.1°
Reaches altitude 10° 13:50:24 10° 229° (SW) 5,115 13.1 26.7°
Maximum altitude 14:04:41 63° 153° (SSE) 2,297 10.6 25.4°
Drops below altitude 10° 14:15:14 10° 76° (ENE) 3,875 10.8 24.3°
Sets 14:17:57 0° 73° (ENE) 4,635 11.1 24.0°
